SCP
0 0 0 0 0 0 0 0 0 0 0 0 0 0 -0 0 0 0 0 0 0 0 0 0 0 0 0 0 0 0 0 0 0 0 0 0 0 0 0 0 0 0 0 0 0
-0 0 0 0 0 0 -0 -0 0 0 0 0 0 0 0 -0 0 0 0 0 0 0 0 0 0 0 0 0 0 0 0 0 0 0 0 0 0 0 0 0 0 0 0 0 0
0 0 0 0 0 0 0 0 0 0 0 0 0 0 0 0 0 0 0 0 0 0 0 0 0 0 0 0 0 0 0 0 0 0 0 0 0 0 0 0 0 0 0 0 0
0 0 0 0 0 0 0 0 0 0 0 0 0 0 -0 0 0 0 0 0 0 0 0 0 0 0 0 0 0 0 0 0 0 0 0 0 0 0 0 0 0 0 0 0 0
0 0 0 0 0 0 0 0 0 0 0 0 0 0 0 0 0 0 0 0 0 0 0 0 0 0 0 0 0 0 0 0 0 0 0 0 0 0 0 0 0 0 0 0 0
0 0 0 0 0 0 0 0 0 0 0 0 0 0 0 0 0 0 0 0 0 0 0 0 0 0 0 0 0 0 0 0 0 0 0 0 0 0 0 0 0 0 0 0 0
0 0 0 0 0 0 0 0 0 0 0 0 0 0 0 0 0 0 0 0 0 0 0 0 0 0 0 0 0 0 0 0 0 0 0 0 0 0 0 0 0 0 0 0 0
0 0 0 0 0 0 0 0 0 0 0 0 0 0 0 0 0 0 0 0 0 0 0 0 0 0 0 0 0 0 0 0 0 0 0 0 0 0 0 0 0 0 0 0 0
0 0 0 0 0 0 0 0 0 0 0 0 0 0 0 0 0 0 0 0 0 0 0 0 0 0 0 0 0 0 0 0 0 0 0 0 0 0 0 0 0 0 0 0 0
0 0 0 0 0 0 -0 0 0 0 0 0 0 0 0 0 0 0 0 0 0 0 0 0 0 0 0 0 0 0 0 0 0 0 0 0 0 0 0 0 0 0 0 0 0
0 0 0 0 0 0 0 0 0 0 0 0 0 0 0 0 0 0 0 0 0 0 0 0 0 0 0 0 0 0 0 0 0 0 0 0 0 0 0 0 0 0 0 0 0
0 0 0 0 0 0 0 0 0 0 0 0 0 0 0 0 0 0 0 0 0 0 0 0 0 0 0 0 0 0 0 0 -0 -0 0 0 0 0 -0 -0 -0 0 0 0 0
0 0 0 0 0 0 0 0 0 0 0 0 0 0 0 0 0 0 0 0 0 0 0 0 0 0 0 0 0 0 0 0 0 0 0 -0 -0 -0 -0 -0 0 0 0 0 0
0 0 0 0 0 0 0 0 0 0 0 0 0 0 0 0 0 0 0 0 0 0 0 0 0 0 0 0 0 0 0 0 0 0 0 0 0 -0 -0 0 0 0 0 0 0
0 0 0 0 0 0 0 0 0 0 0 0 0 0 0 0 0 0 0 0 0 0 0 0 0 0 0 0 0 0 0 0 0 0 0 0 0 0 0 0 0 0 0 0 0
0 0 0 0 0 0 0 0 0 0 0 0 0 0 0 0 0 0 0 0 0 0 0 0 0 0 0 0 0 0 0 0 0 0 0 0 0 0 0 -0 -0 0 -0 -0 -0
0 0 0 0 0 0 0 0 0 0 0 0 0 0 0 0 0 0 0 0 0 0 0 -0 0 0 0 0 0 0 0 0 0 0 0 0 0 0 -0 -0 0 0 0 -0 -0
0 0 0 0 0 0 0 0 0 0 0 0 0 0 0 0 0 0 0 0 0 0 0 0 -0 0 0 0 0 0 0 0 0 0 0 0 0 0 0 0 0 0 0 -0 -0
0 0 0 0 0 0 0 0 0 0 0 0 0 0 0 0 0 0 0 0 0 0 0 0 -0 0 0 0 0 0 0 0 0 0 0 0 0 -0 0 0 0 0 -0 -0 -0
0 0 0 0 0 0 0 0 0 0 0 0 0 0 0 0 0 0 0 0 0 0 0 0 0 0 0 0 0 0 0 0 0 0 0 0 0 0 0 0 -0 -0 -0 -0 0
0 0 0 0 0 0 0 0 0 0 0 0 0 0 0 0 0 0 0 0 0 0 0 0 0 0 0 0 0 0 0 0 0 0 0 0 0 -0 0 -0 -0 -0 -0 0 -0
0 0 0 0 0 0 0 0 0 0 0 0 0 0 0 0 0 0 0 0 0 0 0 0 0 0 0 -0 0 0 0 0 0 0 0 0 -0 0 0 0 0 0 -0 -0 -0
0 0 0 0 0 0 0 0 0 0 0 0 0 0 0 0 0 0 0 0 0 0 0 0 0 0 0 0 0 0 0 0 0 -0 0 0 0 0 0 0 0 0 -0 -0 0
0 0 0 0 0 0 0 0 0 0 0 0 0 0 0 0 0 0 0 0 0 0 0 0 0 0 0 0 0 0 0 0 0 0 0 -0 -0 0 0 0 0 0 0 -0 -0
0 0 0 0 0 0 0 0 0 0 0 0 0 0 0 0 0 0 0 0 0 0 0 0 0 0 0 0 0 0 0 0 -0 0 0 -0 -0 0 0 0 0 0 -0 0 -0
0 0 0 0 0 0 0 0 0 0 0 0 0 0 0 0 0 0 0 0 0 0 0 0 0 0 0 0 0 0 0 0 -0 -0 -0 -0 -0 0 0 0 0 0 0 -0 -0
0 0 0 0 0 0 0 0 0 0 0 0 0 0 0 0 0 0 0 0 0 0 0 0 0 0 0 0 0 0 0 0 -0 -0 0 0 0 0 0 0 0 0 0 -0 -0
Wind_Speed_500mb
9 8 8 9 11 14 16 18 20 21 23 24 27 27 21 10 19 22 22 27 30 23 23 18 12 9 6 9 8 8 16 28 40 39 39 37 25 20 16 22 19 19 25 24 31
12 13 15 16 15 14 14 16 18 19 20 22 24 23 18 7 5 32 26 29 27 22 20 23 12 4 8 9 9 20 22 29 26 29 31 38 44 43 42 43 37 28 27 36 36
16 16 17 18 17 16 17 17 20 22 23 25 26 23 15 7 7 17 27 34 26 23 21 19 15 6 5 3 3 5 21 16 16 11 20 22 32 31 33 39 43 46 49 33 30
18 20 20 20 20 19 18 18 20 23 24 25 24 22 13 10 2 16 30 29 23 22 17 14 10 5 3 2 5 11 8 6 15 22 24 26 28 31 47 56 52 47 45 36 35
20 22 20 19 17 15 15 17 19 20 22 24 22 20 9 11 11 20 25 23 20 19 20 16 19 5 3 4 12 11 11 21 25 37 39 43 49 51 58 55 46 51 54 54 51
20 19 19 16 15 15 13 14 17 19 21 24 23 20 9 9 15 21 22 20 24 22 20 17 8 6 4 2 7 9 22 34 29 30 23 28 32 30 40 50 54 47 52 60 65
21 17 17 16 13 14 12 12 14 16 19 18 20 12 17 10 16 18 24 25 24 20 17 13 10 7 9 7 8 17 20 21 3 14 21 33 28 21 8 18 19 28 34 52 68
20 18 16 13 13 12 9 10 13 17 19 15 14 8 9 15 13 13 19 19 15 19 13 9 8 3 6 12 9 10 4 10 4 27 10 27 28 20 29 38 61 75 69 59 55
21 19 16 13 11 9 7 8 12 15 12 14 8 9 6 11 11 21 27 22 6 12 11 10 6 4 3 9 6 7 12 25 20 16 23 13 39 28 52 69 67 65 67 69 69
18 18 15 12 9 8 8 8 9 7 10 5 9 9 10 15 10 16 24 16 12 11 1 9 6 1 3 10 10 22 19 19 31 15 38 44 53 45 59 63 70 74 77 75 73
17 16 14 10 8 7 8 5 3 6 11 7 6 9 6 16 8 15 28 11 12 12 9 10 4 5 7 7 11 16 25 35 40 41 39 33 50 51 63 67 73 77 74 79 79
17 15 12 9 7 4 6 2 5 7 6 6 5 5 8 18 3 20 30 13 13 10 15 5 1 1 10 11 8 18 28 31 28 20 30 44 58 53 46 62 68 70 75 73 76
19 16 11 10 8 3 2 2 3 7 10 5 8 6 6 10 5 11 23 11 10 10 11 9 4 5 9 18 18 23 21 23 36 34 35 44 45 37 47 65 66 61 63 66 67
19 18 15 14 9 10 5 2 2 5 7 5 0 7 8 7 5 6 13 6 4 11 15 11 1 7 17 22 7 14 8 23 36 31 20 21 30 30 37 39 43 46 30 31 43
19 21 21 21 6 11 7 2 4 1 4 5 1 5 13 4 3 4 9 3 1 7 7 5 8 13 20 4 6 15 24 33 40 34 29 19 14 25 52 42 34 26 28 33 42
22 24 25 25 15 10 7 2 4 3 5 8 1 3 9 5 3 8 4 5 1 2 7 19 10 8 5 14 17 24 22 42 17 8 10 14 11 34 42 24 45 25 36 47 62
28 30 31 25 16 14 8 5 3 5 4 6 4 5 7 6 3 9 6 7 5 5 10 20 5 5 7 12 2 3 25 12 7 9 22 31 26 41 54 41 26 29 48 59 68
32 34 32 27 17 18 12 3 7 2 9 3 4 3 5 7 3 7 4 4 4 4 3 9 7 3 6 6 12 27 6 7 15 26 39 35 19 24 39 49 36 42 59 72 81
39 40 36 31 24 20 8 2 9 10 11 14 6 6 5 5 4 4 1 4 4 2 3 6 10 7 13 18 6 4 8 15 13 28 22 20 44 46 42 30 36 48 66 79 80
54 44 36 33 28 23 5 9 6 6 11 9 9 5 9 6 4 2 2 8 10 6 2 5 14 6 12 7 14 16 10 6 8 18 32 28 49 27 38 40 39 46 61 78 92
56 25 31 38 31 17 7 11 8 12 9 9 9 9 8 8 5 5 2 4 9 12 6 8 3 6 12 13 6 7 6 11 10 13 17 25 28 13 37 33 43 55 74 86 92
43 8 42 50 13 4 8 12 12 14 9 6 7 6 13 15 10 7 8 8 8 17 8 10 5 13 19 27 14 15 11 11 10 18 28 28 46 45 27 47 54 60 78 86 86
35 11 45 56 10 8 1 3 10 12 13 14 14 9 6 14 6 10 8 6 15 13 11 13 5 12 11 6 9 7 11 17 22 20 40 25 25 20 54 55 68 68 84 86 84
32 8 12 34 18 12 12 10 11 13 10 12 10 12 7 11 10 7 9 7 17 15 13 11 8 17 18 28 28 36 33 33 28 14 28 35 54 59 56 57 54 76 73 83 72
26 14 26 14 21 13 16 15 14 14 10 20 10 20 17 12 9 10 11 7 15 14 11 8 13 17 31 46 47 48 52 47 33 42 23 55 50 57 56 52 56 57 74 73 58
33 19 23 12 29 36 21 21 26 12 24 13 15 28 26 13 18 18 19 11 9 15 14 9 7 8 16 21 20 34 46 44 43 40 43 51 58 41 62 70 52 45 70 63 58
39 34 29 23 14 23 20 20 32 27 26 11 37 14 29 37 26 5 17 8 11 17 20 11 5 6 14 13 24 14 17 19 20 27 25 23 37 45 48 49 48 42 71 62 62
Wind_Direction_500mb
75 56 40 25 14 8 7 7 8 8 8 10 9 8 12 26 40 44 38 17 359 352 352 347 328 303 210 215 198 198 244 249 251 258 268 263 255 245 270 272 268 262 264 276 294
6 1 355 350 347 347 348 351 356 359 3 4 5 6 5 26 71 40 33 8 -0 357 356 9 12 117 164 181 193 223 242 261 271 285 277 285 274 281 276 266 261 256 265 281 275
337 335 332 331 331 334 338 340 345 350 359 2 1 4 9 28 96 18 9 358 3 4 7 7 10 67 129 165 205 232 254 303 253 327 330 296 284 275 275 263 264 269 272 260 248
330 326 322 322 321 320 324 332 340 346 353 359 2 5 18 37 53 6 355 6 12 15 12 19 23 44 67 201 7 274 258 330 305 317 312 295 295 278 273 270 274 271 272 263 246
322 320 319 317 316 311 311 323 334 339 346 354 4 7 27 69 39 3 3 8 12 19 26 34 45 46 33 345 320 254 295 307 301 298 290 288 275 273 269 273 268 272 269 262 255
324 322 319 312 316 316 313 322 328 333 342 350 359 9 57 88 14 2 8 5 9 24 26 36 41 14 77 353 300 311 293 294 294 296 294 282 292 286 274 276 270 272 271 268 262
324 324 317 306 306 312 311 315 320 326 334 340 351 20 69 60 23 20 11 2 8 21 24 26 33 14 332 312 314 285 293 298 68 343 311 331 283 247 357 357 314 303 299 278 266
323 319 311 302 294 298 301 312 321 324 328 334 351 38 79 30 23 17 7 11 13 11 24 11 15 38 3 307 287 293 271 342 340 319 327 335 289 297 321 310 307 302 294 286 283
315 313 299 292 287 286 293 313 324 325 327 333 5 105 71 13 23 2 4 4 3 0 26 34 54 58 12 332 299 27 318 318 322 298 310 305 301 307 299 297 295 292 288 286 279
304 306 294 287 287 294 305 319 341 350 346 10 58 111 44 350 14 18 6 8 7 360 330 29 37 19 38 2 331 315 315 297 296 310 307 301 287 292 296 290 285 284 282 277 270
290 294 283 276 270 291 309 326 57 43 25 49 82 109 53 15 57 6 5 10 17 44 9 6 327 22 9 350 308 294 285 288 293 297 300 287 289 294 291 288 281 279 278 278 275
278 272 258 241 260 280 306 289 95 129 85 22 26 53 51 13 26 13 10 21 23 18 342 289 55 95 320 304 284 286 289 288 287 284 302 296 295 294 289 277 280 281 278 274 279
269 254 227 215 224 269 155 181 115 107 99 54 350 341 344 11 54 7 17 1 9 351 352 297 357 255 288 308 301 291 278 290 293 311 288 290 288 303 300 292 288 287 283 283 282
256 240 208 192 222 220 224 191 278 116 87 93 348 307 306 338 109 44 13 59 7 328 329 274 277 282 296 294 279 303 332 303 300 313 306 335 297 309 294 303 296 300 309 300 301
241 225 204 187 200 196 205 230 291 159 14 124 148 288 318 346 335 38 14 59 336 310 302 350 287 311 301 289 221 283 318 298 293 290 302 286 245 302 299 305 307 318 306 307 305
225 213 200 197 194 212 198 207 261 327 232 154 158 6 285 348 20 352 51 47 68 277 243 263 301 272 271 285 250 295 301 299 290 265 242 275 252 293 296 309 307 311 303 309 311
215 201 201 198 199 189 192 216 8 213 32 169 123 61 309 317 57 14 34 48 56 342 8 310 236 234 230 295 243 251 332 320 301 282 286 305 296 264 284 300 279 296 298 308 312
210 198 199 200 188 179 177 23 204 53 207 71 86 62 261 319 44 347 128 122 156 53 55 324 311 272 165 269 295 309 273 302 302 313 301 304 252 267 300 303 276 280 293 312 311
199 196 196 196 182 177 178 162 214 194 154 139 125 152 213 239 277 286 180 183 144 194 4 295 263 290 249 274 229 91 243 314 270 269 275 269 275 289 278 292 284 301 311 305 310
190 187 197 191 179 172 113 245 212 180 138 107 199 171 206 211 269 348 199 159 163 174 250 175 290 247 305 307 241 229 350 274 272 301 301 289 291 281 303 305 314 310 314 318 311
186 169 194 184 174 174 209 220 206 196 157 149 189 166 213 204 205 218 196 181 204 161 168 160 207 301 305 213 250 223 253 219 286 263 291 306 300 302 313 308 312 315 318 318 313
179 156 176 173 162 202 197 185 165 168 168 141 135 173 192 178 183 231 243 245 197 158 184 179 177 272 268 291 285 241 253 239 275 289 275 285 277 287 285 322 312 317 324 319 317
174 123 173 176 195 213 297 212 210 151 182 167 190 214 175 186 213 215 208 233 199 180 180 160 189 296 298 148 145 227 220 245 281 283 266 265 275 282 315 311 320 324 323 321 318
152 142 165 203 226 174 156 199 203 200 171 159 151 145 153 199 209 178 224 237 201 202 191 148 218 228 257 283 309 290 277 278 277 261 281 258 281 297 310 316 325 324 316 322 322
164 186 178 183 218 194 187 153 160 170 208 184 180 206 178 185 193 220 224 238 202 205 191 166 267 258 261 274 281 279 281 284 265 250 257 283 292 297 306 320 322 317 325 328 337
159 157 171 164 162 178 184 206 178 174 160 206 223 198 193 186 188 187 178 213 194 176 173 159 271 306 284 268 280 280 272 268 267 265 255 267 283 300 318 318 331 332 330 337 344
192 165 169 160 154 169 208 187 197 155 203 183 208 157 203 230 219 153 174 179 172 174 183 182 232 322 272 321 307 272 242 221 264 269 263 275 299 316 319 323 337 341 341 343 343
Wind_Speed_850mb
9 8 8 9 11 14 16 18 20 21 23 24 27 27 21 10 19 22 22 27 30 23 23 18 12 9 6 9 8 8 16 28 40 39 39 37 25 20 16 22 19 19 25 24 31
12 13 15 16 15 14 14 16 18 19 20 22 24 23 18 7 5 32 26 29 27 22 20 23 12 4 8 9 9 20 22 29 26 29 31 38 44 43 42 43 37 28 27 36 36
16 16 17 18 17 16 17 17 20 22 23 25 26 23 15 7 7 17 27 34 26 23 21 19 15 6 5 3 3 5 21 16 16 11 20 22 32 31 33 39 43 46 49 33 30
18 20 20 20 20 19 18 18 20 23 24 25 24 22 13 10 2 16 30 29 23 22 17 14 10 5 3 2 5 11 8 6 15 22 24 26 28 31 47 56 52 47 45 36 35
20 22 20 19 17 15 15 17 19 20 22 24 22 20 9 11 11 20 25 23 20 19 20 16 19 5 3 4 12 11 11 21 25 37 39 43 49 51 58 55 46 51 54 54 51
20 19 19 16 15 15 13 14 17 19 21 24 23 20 9 9 15 21 22 20 24 22 20 17 8 6 4 2 7 9 22 34 29 30 23 28 32 30 40 50 54 47 52 60 65
21 17 17 16 13 14 12 12 14 16 19 18 20 12 17 10 16 18 24 25 24 20 17 13 10 7 9 7 8 17 20 21 3 14 21 33 28 21 8 18 19 28 34 52 68
20 18 16 13 13 12 9 10 13 17 19 15 14 8 9 15 13 13 19 19 15 19 13 9 8 3 6 12 9 10 4 10 4 27 10 27 28 20 29 38 61 75 69 59 55
21 19 16 13 11 9 7 8 12 15 12 14 8 9 6 11 11 21 27 22 6 12 11 10 6 4 3 9 6 7 12 25 20 16 23 13 39 28 52 69 67 65 67 69 69
18 18 15 12 9 8 8 8 9 7 10 5 9 9 10 15 10 16 24 16 12 11 1 9 6 1 3 10 10 22 19 19 31 15 38 44 53 45 59 63 70 74 77 75 73
17 16 14 10 8 7 8 5 3 6 11 7 6 9 6 16 8 15 28 11 12 12 9 10 4 5 7 7 11 16 25 35 40 41 39 33 50 51 63 67 73 77 74 79 79
17 15 12 9 7 4 6 2 5 7 6 6 5 5 8 18 3 20 30 13 13 10 15 5 1 1 10 11 8 18 28 31 28 20 30 44 58 53 46 62 68 70 75 73 76
19 16 11 10 8 3 2 2 3 7 10 5 8 6 6 10 5 11 23 11 10 10 11 9 4 5 9 18 18 23 21 23 36 34 35 44 45 37 47 65 66 61 63 66 67
19 18 15 14 9 10 5 2 2 5 7 5 0 7 8 7 5 6 13 6 4 11 15 11 1 7 17 22 7 14 8 23 36 31 20 21 30 30 37 39 43 46 30 31 43
19 21 21 21 6 11 7 2 4 1 4 5 1 5 13 4 3 4 9 3 1 7 7 5 8 13 20 4 6 15 24 33 40 34 29 19 14 25 52 42 34 26 28 33 42
22 24 25 25 15 10 7 2 4 3 5 8 1 3 9 5 3 8 4 5 1 2 7 19 10 8 5 14 17 24 22 42 17 8 10 14 11 34 42 24 45 25 36 47 62
28 30 31 25 16 14 8 5 3 5 4 6 4 5 7 6 3 9 6 7 5 5 10 20 5 5 7 12 2 3 25 12 7 9 22 31 26 41 54 41 26 29 48 59 68
32 34 32 27 17 18 12 3 7 2 9 3 4 3 5 7 3 7 4 4 4 4 3 9 7 3 6 6 12 27 6 7 15 26 39 35 19 24 39 49 36 42 59 72 81
39 40 36 31 24 20 8 2 9 10 11 14 6 6 5 5 4 4 1 4 4 2 3 6 10 7 13 18 6 4 8 15 13 28 22 20 44 46 42 30 36 48 66 79 80
54 44 36 33 28 23 5 9 6 6 11 9 9 5 9 6 4 2 2 8 10 6 2 5 14 6 12 7 14 16 10 6 8 18 32 28 49 27 38 40 39 46 61 78 92
56 25 31 38 31 17 7 11 8 12 9 9 9 9 8 8 5 5 2 4 9 12 6 8 3 6 12 13 6 7 6 11 10 13 17 25 28 13 37 33 43 55 74 86 92
43 8 42 50 13 4 8 12 12 14 9 6 7 6 13 15 10 7 8 8 8 17 8 10 5 13 19 27 14 15 11 11 10 18 28 28 46 45 27 47 54 60 78 86 86
35 11 45 56 10 8 1 3 10 12 13 14 14 9 6 14 6 10 8 6 15 13 11 13 5 12 11 6 9 7 11 17 22 20 40 25 25 20 54 55 68 68 84 86 84
32 8 12 34 18 12 12 10 11 13 10 12 10 12 7 11 10 7 9 7 17 15 13 11 8 17 18 28 28 36 33 33 28 14 28 35 54 59 56 57 54 76 73 83 72
26 14 26 14 21 13 16 15 14 14 10 20 10 20 17 12 9 10 11 7 15 14 11 8 13 17 31 46 47 48 52 47 33 42 23 55 50 57 56 52 56 57 74 73 58
33 19 23 12 29 36 21 21 26 12 24 13 15 28 26 13 18 18 19 11 9 15 14 9 7 8 16 21 20 34 46 44 43 40 43 51 58 41 62 70 52 45 70 63 58
39 34 29 23 14 23 20 20 32 27 26 11 37 14 29 37 26 5 17 8 11 17 20 11 5 6 14 13 24 14 17 19 20 27 25 23 37 45 48 49 48 42 71 62 62
Wind_Direction_850mb
75 56 40 25 14 8 7 7 8 8 8 10 9 8 12 26 40 44 38 17 359 352 352 347 328 303 210 215 198 198 244 249 251 258 268 263 255 245 270 272 268 262 264 276 294
6 1 355 350 347 347 348 351 356 359 3 4 5 6 5 26 71 40 33 8 -0 357 356 9 12 117 164 181 193 223 242 261 271 285 277 285 274 281 276 266 261 256 265 281 275
337 335 332 331 331 334 338 340 345 350 359 2 1 4 9 28 96 18 9 358 3 4 7 7 10 67 129 165 205 232 254 303 253 327 330 296 284 275 275 263 264 269 272 260 248
330 326 322 322 321 320 324 332 340 346 353 359 2 5 18 37 53 6 355 6 12 15 12 19 23 44 67 201 7 274 258 330 305 317 312 295 295 278 273 270 274 271 272 263 246
322 320 319 317 316 311 311 323 334 339 346 354 4 7 27 69 39 3 3 8 12 19 26 34 45 46 33 345 320 254 295 307 301 298 290 288 275 273 269 273 268 272 269 262 255
324 322 319 312 316 316 313 322 328 333 342 350 359 9 57 88 14 2 8 5 9 24 26 36 41 14 77 353 300 311 293 294 294 296 294 282 292 286 274 276 270 272 271 268 262
324 324 317 306 306 312 311 315 320 326 334 340 351 20 69 60 23 20 11 2 8 21 24 26 33 14 332 312 314 285 293 298 68 343 311 331 283 247 357 357 314 303 299 278 266
323 319 311 302 294 298 301 312 321 324 328 334 351 38 79 30 23 17 7 11 13 11 24 11 15 38 3 307 287 293 271 342 340 319 327 335 289 297 321 310 307 302 294 286 283
315 313 299 292 287 286 293 313 324 325 327 333 5 105 71 13 23 2 4 4 3 0 26 34 54 58 12 332 299 27 318 318 322 298 310 305 301 307 299 297 295 292 288 286 279
304 306 294 287 287 294 305 319 341 350 346 10 58 111 44 350 14 18 6 8 7 360 330 29 37 19 38 2 331 315 315 297 296 310 307 301 287 292 296 290 285 284 282 277 270
290 294 283 276 270 291 309 326 57 43 25 49 82 109 53 15 57 6 5 10 17 44 9 6 327 22 9 350 308 294 285 288 293 297 300 287 289 294 291 288 281 279 278 278 275
278 272 258 241 260 280 306 289 95 129 85 22 26 53 51 13 26 13 10 21 23 18 342 289 55 95 320 304 284 286 289 288 287 284 302 296 295 294 289 277 280 281 278 274 279
269 254 227 215 224 269 155 181 115 107 99 54 350 341 344 11 54 7 17 1 9 351 352 297 357 255 288 308 301 291 278 290 293 311 288 290 288 303 300 292 288 287 283 283 282
256 240 208 192 222 220 224 191 278 116 87 93 348 307 306 338 109 44 13 59 7 328 329 274 277 282 296 294 279 303 332 303 300 313 306 335 297 309 294 303 296 300 309 300 301
241 225 204 187 200 196 205 230 291 159 14 124 148 288 318 346 335 38 14 59 336 310 302 350 287 311 301 289 221 283 318 298 293 290 302 286 245 302 299 305 307 318 306 307 305
225 213 200 197 194 212 198 207 261 327 232 154 158 6 285 348 20 352 51 47 68 277 243 263 301 272 271 285 250 295 301 299 290 265 242 275 252 293 296 309 307 311 303 309 311
215 201 201 198 199 189 192 216 8 213 32 169 123 61 309 317 57 14 34 48 56 342 8 310 236 234 230 295 243 251 332 320 301 282 286 305 296 264 284 300 279 296 298 308 312
210 198 199 200 188 179 177 23 204 53 207 71 86 62 261 319 44 347 128 122 156 53 55 324 311 272 165 269 295 309 273 302 302 313 301 304 252 267 300 303 276 280 293 312 311
199 196 196 196 182 177 178 162 214 194 154 139 125 152 213 239 277 286 180 183 144 194 4 295 263 290 249 274 229 91 243 314 270 269 275 269 275 289 278 292 284 301 311 305 310
190 187 197 191 179 172 113 245 212 180 138 107 199 171 206 211 269 348 199 159 163 174 250 175 290 247 305 307 241 229 350 274 272 301 301 289 291 281 303 305 314 310 314 318 311
186 169 194 184 174 174 209 220 206 196 157 149 189 166 213 204 205 218 196 181 204 161 168 160 207 301 305 213 250 223 253 219 286 263 291 306 300 302 313 308 312 315 318 318 313
179 156 176 173 162 202 197 185 165 168 168 141 135 173 192 178 183 231 243 245 197 158 184 179 177 272 268 291 285 241 253 239 275 289 275 285 277 287 285 322 312 317 324 319 317
174 123 173 176 195 213 297 212 210 151 182 167 190 214 175 186 213 215 208 233 199 180 180 160 189 296 298 148 145 227 220 245 281 283 266 265 275 282 315 311 320 324 323 321 318
152 142 165 203 226 174 156 199 203 200 171 159 151 145 153 199 209 178 224 237 201 202 191 148 218 228 257 283 309 290 277 278 277 261 281 258 281 297 310 316 325 324 316 322 322
164 186 178 183 218 194 187 153 160 170 208 184 180 206 178 185 193 220 224 238 202 205 191 166 267 258 261 274 281 279 281 284 265 250 257 283 292 297 306 320 322 317 325 328 337
159 157 171 164 162 178 184 206 178 174 160 206 223 198 193 186 188 187 178 213 194 176 173 159 271 306 284 268 280 280 272 268 267 265 255 267 283 300 318 318 331 332 330 337 344
192 165 169 160 154 169 208 187 197 155 203 183 208 157 203 230 219 153 174 179 172 174 183 182 232 322 272 321 307 272 242 221 264 269 263 275 299 316 319 323 337 341 341 343 343